Location: Lac Lasalle
(46.0398°N, 74.1576°W)
Time: 12:42:35
(UTC-04:00)

ISS - Pass Details

Date: 23 March 2019
Orbit: 408 x 410 km, 51.6° (Epoch: 27 April)

Event Time Altitude Azimuth Distance (km) Brightness Sun altitude
Rises 21:28:10 0° 258° (WSW) 2,330 0.8 -23.3°
Reaches altitude 10° 21:30:18 10° 264° (W) 1,471 -0.3 -23.6°
Enters shadow 21:32:44 38° 297° (WNW) 635 -2.4 -23.9°
